Temperature
13 13 13 13 13 13 13 13 13 13 13 13 13 13 13 13 13 14 14 14 14 14 14 14 14 14 14 14 14 14 14 14 15 15 15 15 15 15 15 15 14 14 15
13 13 13 13 12 13 13 13 13 13 13 13 13 13 13 13 13 13 13 13 13 14 14 14 14 14 14 14 14 14 14 14 14 14 14 14 14 14 14 14 14 14 14
13 13 13 13 12 12 13 13 13 13 13 13 13 13 13 13 13 13 13 13 13 13 13 14 13 14 14 14 14 14 14 14 14 14 14 14 14 14 14 14 14 14 14
13 12 12 12 12 12 12 12 12 12 12 12 12 12 12 12 13 13 13 13 13 13 13 13 13 13 13 13 14 14 14 14 14 14 13 13 13 13 14 14 14 14 14
12 12 12 12 12 12 12 12 12 12 12 12 12 12 12 12 12 12 12 13 13 13 13 13 13 13 13 13 13 14 14 14 14 13 13 13 13 13 13 13 14 14 14
12 12 12 12 12 12 12 12 12 12 12 12 12 12 12 12 12 12 12 12 12 12 12 13 13 13 13 13 13 13 13 13 13 13 13 13 13 13 13 13 13 13 13
11 11 11 11 11 11 11 12 12 12 12 11 11 11 11 12 12 12 12 12 12 12 12 12 12 12 13 13 13 13 13 13 13 12 12 12 12 13 13 13 13 13 13
11 11 11 11 11 11 11 11 11 11 11 11 11 11 11 11 12 12 11 11 11 12 12 12 12 12 12 12 12 12 12 12 12 12 12 12 12 12 12 12 12 13 12
11 11 11 11 11 11 11 11 11 11 11 11 11 11 11 11 11 11 11 11 11 11 11 11 12 12 12 12 12 12 12 12 11 12 11 11 12 12 12 12 12 12 12
10 10 11 11 11 10 11 11 11 11 11 11 11 11 11 11 11 11 11 11 11 11 11 11 11 11 11 11 11 11 11 11 11 11 11 11 11 11 11 11 11 12 12
10 10 10 10 10 10 10 10 10 11 11 11 11 10 10 10 10 10 10 10 10 10 10 10 11 11 11 11 11 11 11 11 11 10 10 10 11 11 11 11 11 11 11
9 9 10 10 10 10 10 10 10 10 10 10 10 10 10 10 10 10 10 10 10 10 10 10 10 10 10 10 10 10 10 10 10 10 10 10 10 10 10 10 11 11 11
9 9 9 9 9 10 10 10 10 10 10 10 10 10 9 9 9 9 9 9 9 10 10 10 10 10 10 10 10 10 10 10 10 9 9 9 9 9 10 10 10 10 10
9 9 9 9 9 9 9 9 9 9 9 9 9 9 9 9 9 9 9 9 9 9 9 9 9 9 9 9 9 9 9 9 9 9 9 9 9 9 9 9 9 9 9
8 9 9 9 9 9 9 9 9 9 9 9 9 9 9 9 9 9 9 9 9 9 9 9 9 9 9 9 9 9 9 9 8 9 8 8 8 8 8 8 8 8 8
8 8 8 8 8 9 9 9 9 9 9 9 9 9 8 8 8 8 8 8 8 8 8 8 8 8 8 8 8 8 8 8 8 8 8 8 8 8 8 8 8 8 8
8 8 8 8 8 8 8 8 8 8 8 8 8 8 8 8 8 8 8 8 8 8 8 8 8 8 8 8 8 8 8 7 7 7 7 7 7 7 7 7 7 7 7
7 8 8 8 8 8 8 8 8 8 8 8 8 8 8 8 8 7 7 7 7 7 7 7 7 7 7 7 7 7 7 7 7 7 7 7 7 7 7 7 7 7 7
7 7 8 8 8 8 7 8 8 8 8 8 8 7 7 7 7 7 7 7 7 7 7 7 7 7 6 6 6 6 6 6 6 6 6 6 6 6 6 6 6 6 6
6 7 7 7 7 7 7 7 7 7 7 7 7 7 7 7 7 7 7 7 6 6 6 6 6 6 6 6 6 6 5 5 5 5 5 5 5 5 5 5 6 6 6
6 6 6 7 7 7 7 7 7 7 7 7 7 7 7 6 6 6 6 6 6 6 6 6 5 5 5 5 5 5 4 4 4 4 4 4 4 4 5 5 5 5 5
5 6 6 6 6 6 6 6 6 6 6 6 6 6 6 6 6 6 6 6 6 5 5 5 5 5 5 5 4 4 3 3 3 3 3 4 4 4 4 4 4 4 4
5 5 5 5 6 6 6 6 6 6 6 6 6 6 6 6 6 5 5 5 5 5 5 5 5 4 4 4 4 4 3 3 2 3 3 3 3 3 3 3 3 4 4
4 5 5 5 5 5 5 5 5 5 5 5 5 5 5 5 5 5 5 5 5 5 5 4 4 4 4 4 3 4 4 3 2 1 2 2 2 2 2 3 3 3 3
4 4 4 4 4 5 5 5 5 5 5 5 5 5 5 5 5 5 5 4 4 4 4 4 4 4 3 3 3 3 3 3 3 2 1 2 2 2 2 2 2 2 2
3 3 4 4 4 4 4 4 4 5 5 4 4 5 4 4 4 4 4 4 4 4 4 4 3 3 3 3 3 2 3 2 3 2 2 1 1 1 1 1 1 1 1
Wind_Speed
6 7 8 11 11 11 11 11 11 11 11 10 10 11 11 11 11 11 11 12 12 12 12 13 13 13 14 14 15 15 16 16 15 15 15 15 16 16 16 14 14 15 17
7 9 9 12 12 12 11 11 11 11 11 11 10 11 11 11 12 12 12 12 12 12 12 13 13 14 14 15 15 15 15 15 15 14 14 15 15 16 16 15 15 15 16
7 9 10 12 13 12 11 11 11 11 11 11 11 11 11 11 12 13 13 13 13 13 13 13 14 14 15 15 15 15 15 15 13 12 11 13 14 15 16 16 16 16 16
8 9 11 13 13 13 12 12 12 11 11 11 11 11 11 12 12 13 13 14 14 14 14 14 14 14 15 15 15 15 14 14 13 10 11 12 13 15 15 15 16 16 16
8 9 11 13 13 12 12 12 12 12 11 11 11 11 12 12 13 13 14 14 14 14 15 15 15 15 14 14 14 14 14 13 12 12 12 12 12 15 15 15 15 15 16
8 9 12 13 13 13 12 12 12 12 12 11 12 12 12 12 13 13 14 14 14 14 15 15 15 15 15 14 14 14 13 12 11 12 12 12 12 14 15 15 15 15 15
8 8 11 13 13 13 12 12 12 12 12 12 12 12 12 13 13 13 14 14 14 15 15 15 15 14 14 14 14 14 13 12 11 12 11 12 13 14 15 15 15 14 15
8 8 9 12 13 13 12 12 12 12 12 12 12 12 12 13 13 13 13 14 14 15 15 15 14 14 14 15 15 14 13 12 11 12 12 12 13 14 14 15 15 14 14
8 7 8 11 12 12 12 12 11 11 12 12 12 12 13 13 13 13 13 14 14 14 14 14 14 14 14 15 15 14 14 12 12 11 11 11 13 14 14 14 15 15 14
7 7 7 9 11 12 12 12 12 12 12 12 12 12 13 12 12 13 13 13 14 14 14 14 14 14 14 14 14 14 12 11 12 11 11 12 13 14 14 14 14 14 14
6 6 6 7 9 10 10 11 11 11 11 11 11 12 11 10 10 11 13 13 13 13 14 14 14 14 13 13 13 12 10 10 11 10 11 12 13 13 14 14 14 14 14
7 6 5 6 7 9 9 9 9 9 9 9 9 9 8 8 9 10 13 13 13 13 13 13 13 11 9 9 10 9 9 10 10 10 11 12 12 13 13 14 14 14 13
8 7 5 6 7 8 7 7 7 7 7 8 8 8 8 8 8 8 9 9 10 10 9 10 9 8 8 7 8 9 9 9 9 9 11 12 11 12 12 13 13 13 13
7 7 5 5 6 7 7 7 7 6 6 6 7 7 7 6 6 6 6 7 7 6 6 6 7 8 8 9 9 9 9 8 9 9 11 12 12 12 12 12 12 12 13
7 7 6 5 6 6 7 6 6 6 6 7 7 7 7 6 6 6 6 6 6 6 6 6 6 7 8 8 8 8 9 9 9 9 10 14 13 13 12 12 12 12 12
7 7 6 6 6 7 7 7 6 6 7 7 6 7 7 7 6 6 6 5 5 6 6 6 6 6 6 7 8 8 8 8 9 9 9 11 14 14 13 13 12 11 11
7 7 7 6 6 7 8 8 6 6 7 6 6 7 7 7 7 7 5 5 5 6 6 6 6 6 6 7 7 8 8 8 8 9 9 8 10 13 14 13 13 12 12
6 6 6 6 7 7 7 7 7 7 7 6 7 7 7 7 8 7 5 5 6 6 6 5 5 5 5 5 5 5 6 7 8 8 9 9 8 9 11 13 13 13 12
7 6 6 6 7 7 7 7 7 6 6 6 7 7 7 7 8 7 6 6 7 6 5 5 4 4 5 5 5 5 5 6 7 7 9 9 9 9 8 10 12 13 12
6 6 6 6 6 6 6 6 5 5 5 5 6 6 8 7 7 7 6 7 7 5 5 5 5 5 5 5 5 5 5 5 6 7 7 8 9 9 8 8 8 10 12
5 6 6 6 6 6 5 6 5 5 5 4 4 7 8 8 8 7 6 6 6 5 6 6 5 6 5 4 4 4 4 4 5 5 5 6 7 8 8 8 8 7 8
4 5 6 7 6 6 6 5 5 5 4 4 4 5 7 8 8 7 7 6 6 5 7 7 7 4 4 3 2 3 2 2 2 3 3 4 5 6 7 7 7 7 7
4 5 5 6 6 6 5 5 5 5 4 4 4 4 6 7 8 7 7 7 6 6 6 7 7 6 5 3 2 1 2 2 1 1 1 2 3 4 4 5 6 6 6
5 5 5 5 6 6 6 7 8 7 6 5 5 5 6 7 7 8 8 7 7 6 6 7 6 5 6 5 2 0 1 1 2 2 1 1 2 2 3 3 3 4 5
4 4 4 5 5 5 5 7 8 6 5 5 5 6 6 5 6 7 7 7 7 6 6 7 6 6 5 5 3 2 1 1 2 2 2 2 0 1 2 2 2 2 4
3 3 4 5 5 5 5 6 7 7 6 7 7 6 5 4 5 6 7 7 7 6 6 6 6 7 5 5 4 3 2 2 2 2 2 2 1 1 1 1 1 2 3
Wind_Direction
164 163 169 157 145 136 129 124 119 114 111 107 101 96 93 90 87 83 82 84 84 84 83 82 82 83 81 80 79 78 77 75 74 75 77 79 80 80 78 76 80 81 79
161 163 164 154 144 137 131 127 122 118 114 109 104 99 96 92 88 86 86 85 83 82 83 83 80 81 80 79 78 77 77 76 75 76 79 82 80 79 78 73 72 79 78
157 160 159 149 141 137 133 129 125 122 118 113 108 103 100 96 91 87 87 86 84 82 82 82 81 79 79 79 79 77 77 76 76 76 81 83 82 79 79 77 78 79 78
156 157 157 146 141 137 133 129 127 124 120 115 110 105 101 98 94 91 87 85 84 83 81 81 80 80 79 79 78 77 77 75 72 74 79 78 79 78 79 79 79 80 78
152 153 149 144 140 136 134 131 127 123 120 115 112 108 103 99 96 92 88 85 84 82 81 81 79 80 79 79 79 78 77 75 71 75 76 74 74 74 76 78 78 79 78
146 149 145 142 139 135 132 130 127 122 120 116 112 108 104 101 97 93 90 87 85 83 82 81 79 78 78 78 78 77 76 74 78 75 73 72 72 73 75 76 77 78 76
144 142 145 142 139 136 133 130 128 125 122 119 115 110 106 102 98 95 92 91 89 87 84 81 79 78 78 79 78 75 71 69 77 76 72 71 70 73 74 75 76 77 77
142 138 143 142 139 137 135 132 129 127 124 121 118 114 108 104 101 99 96 93 92 90 87 83 81 79 79 80 78 75 70 74 79 76 73 71 69 71 73 73 74 76 77
141 136 137 145 141 136 134 130 127 125 122 119 116 112 109 105 102 101 98 95 93 91 88 86 83 81 80 79 78 75 72 70 79 76 74 72 68 70 71 71 70 70 72
145 141 140 146 146 142 137 131 128 125 121 118 114 110 108 106 105 103 101 97 94 92 89 87 84 82 81 79 77 75 72 75 75 75 73 70 66 67 67 68 68 68 68
156 152 148 149 147 144 140 135 131 127 122 120 116 112 115 116 112 107 99 97 95 93 91 87 84 82 82 79 75 72 73 75 75 72 69 65 66 67 67 66 67 67 67
173 165 161 161 151 146 140 140 140 137 132 130 129 125 121 116 111 108 101 97 94 92 90 85 82 81 80 82 77 74 73 75 75 72 68 62 66 68 68 66 64 64 66
179 174 168 166 155 150 144 143 142 141 140 136 133 129 125 119 117 113 111 101 94 90 87 84 77 72 73 75 74 73 72 72 70 72 66 62 67 70 69 66 64 62 62
181 178 175 171 158 152 148 147 147 143 141 138 137 137 135 124 119 118 112 109 102 94 88 83 78 74 74 75 77 78 75 72 71 69 63 61 66 68 69 67 65 63 62
187 183 183 178 169 162 155 148 150 147 147 143 142 145 143 134 128 120 115 107 101 100 95 89 86 82 79 75 75 77 75 73 73 74 67 60 60 61 64 65 64 63 61
199 192 188 189 180 173 164 156 153 151 149 147 147 150 148 141 135 131 121 111 105 102 99 98 93 88 81 78 74 73 74 72 71 72 70 63 56 56 58 59 60 60 60
206 198 192 189 186 182 172 161 153 152 152 149 147 153 152 147 146 137 130 121 114 112 107 102 94 90 84 79 73 69 70 70 72 67 62 60 57 53 53 54 55 56 57
208 201 196 188 187 187 179 164 156 153 156 154 149 152 152 151 152 144 137 128 124 121 114 108 102 98 89 81 72 67 68 67 67 64 60 55 53 50 51 51 50 50 49
210 200 194 191 188 186 177 163 158 152 154 155 152 152 155 154 156 152 144 137 135 127 121 118 113 107 98 84 74 68 67 65 63 62 61 54 50 48 50 51 49 47 44
211 201 193 189 186 180 170 158 155 153 148 151 154 155 156 156 156 153 146 145 143 137 131 129 120 106 101 95 86 71 64 69 66 59 57 54 50 48 47 45 46 46 43
210 203 196 187 186 176 173 171 170 172 161 155 156 158 159 158 157 155 149 150 152 151 148 142 130 122 113 114 100 87 75 69 68 57 53 54 51 46 45 44 44 40 38
215 211 204 194 186 185 181 177 174 164 162 154 152 159 162 160 160 161 159 161 161 158 156 153 145 138 133 141 133 135 135 132 73 52 51 49 45 43 42 40 42 40 34
220 217 213 200 192 189 176 160 145 143 140 155 163 168 171 167 166 167 168 167 167 167 169 168 163 160 159 156 159 166 176 181 142 124 64 53 39 37 38 35 37 36 32
221 215 211 202 191 180 170 176 176 179 178 182 175 174 170 170 170 170 171 171 170 173 176 176 175 173 172 169 159 47 2 137 168 164 176 94 31 23 23 20 26 30 25
217 209 204 197 185 177 179 182 186 185 178 167 167 169 168 167 171 171 172 173 174 176 181 181 180 178 184 184 175 161 141 150 177 192 194 199 308 357 0 358 7 13 16
216 203 200 195 189 180 182 181 187 182 170 167 170 171 172 169 172 174 176 176 178 179 183 187 188 187 187 186 182 185 191 192 189 196 203 210 231 275 309 316 315 349 3
Height
1519 1520 1522 1524 1526 1527 1528 1529 1530 1530 1531 1532 1532 1532 1532 1533 1533 1533 1532 1533 1533 1533 1534 1534 1535 1535 1535 1536 1536 1537 1537 1537 1537 1538 1538 1538 1538 1539 1539 1539 1539 1539 1539
1518 1520 1522 1524 1526 1527 1528 1529 1530 1531 1531 1532 1532 1533 1533 1533 1533 1533 1533 1534 1534 1534 1535 1535 1535 1536 1536 1537 1537 1538 1538 1538 1539 1539 1540 1540 1540 1540 1541 1541 1541 1541 1541
1517 1519 1521 1524 1525 1527 1528 1529 1530 1531 1531 1532 1533 1533 1534 1534 1534 1534 1534 1535 1535 1535 1536 1536 1536 1537 1537 1538 1538 1539 1539 1540 1540 1541 1541 1542 1542 1542 1543 1543 1543 1543 1543
1517 1519 1521 1523 1525 1527 1528 1529 1530 1531 1532 1532 1533 1534 1534 1534 1535 1535 1535 1536 1536 1536 1537 1537 1537 1538 1538 1539 1539 1540 1540 1541 1542 1542 1543 1544 1544 1544 1544 1544 1545 1545 1545
1517 1519 1521 1523 1525 1526 1528 1529 1530 1531 1532 1533 1533 1534 1535 1535 1535 1536 1536 1536 1537 1537 1538 1538 1538 1539 1539 1540 1540 1541 1541 1542 1543 1544 1544 1545 1546 1546 1546 1546 1546 1546 1546
1516 1518 1520 1523 1525 1526 1528 1529 1530 1531 1532 1533 1534 1534 1535 1536 1536 1536 1537 1537 1538 1538 1539 1539 1539 1540 1540 1540 1541 1542 1542 1543 1544 1545 1546 1546 1547 1547 1547 1547 1547 1548 1548
1516 1518 1520 1522 1524 1526 1527 1529 1530 1531 1532 1533 1534 1534 1535 1536 1536 1537 1537 1538 1538 1539 1539 1540 1540 1540 1541 1541 1542 1543 1543 1544 1545 1546 1547 1548 1548 1548 1548 1548 1549 1549 1549
1516 1518 1520 1522 1524 1526 1527 1528 1529 1531 1532 1533 1534 1535 1536 1536 1537 1537 1538 1538 1539 1539 1540 1540 1541 1541 1542 1542 1543 1543 1544 1545 1546 1547 1548 1548 1549 1549 1549 1550 1550 1550 1550
1515 1517 1519 1521 1523 1525 1527 1528 1529 1531 1532 1532 1534 1535 1536 1536 1537 1538 1538 1539 1539 1540 1540 1541 1541 1542 1542 1543 1544 1544 1545 1546 1547 1548 1549 1549 1550 1550 1550 1550 1551 1551 1551
1514 1516 1518 1520 1522 1524 1526 1528 1529 1530 1532 1533 1534 1535 1536 1537 1537 1538 1539 1539 1540 1540 1541 1541 1542 1542 1543 1543 1544 1545 1546 1547 1548 1548 1549 1550 1550 1551 1551 1551 1551 1552 1552
1513 1515 1517 1519 1521 1523 1525 1527 1529 1530 1531 1533 1534 1535 1536 1537 1538 1538 1539 1539 1540 1541 1541 1542 1542 1542 1543 1544 1545 1546 1546 1547 1548 1549 1550 1550 1551 1551 1551 1551 1552 1552 1552
1512 1514 1516 1517 1520 1522 1524 1526 1528 1529 1531 1532 1533 1534 1536 1536 1537 1538 1539 1539 1540 1541 1541 1542 1542 1543 1543 1544 1545 1546 1546 1547 1548 1549 1550 1550 1551 1551 1551 1552 1552 1552 1553
1510 1512 1514 1516 1518 1520 1522 1524 1526 1528 1529 1531 1532 1534 1535 1536 1537 1538 1538 1539 1540 1540 1541 1542 1542 1543 1543 1544 1545 1546 1546 1547 1548 1549 1550 1551 1551 1551 1552 1552 1552 1552 1553
1509 1510 1512 1513 1515 1517 1520 1523 1525 1526 1528 1530 1531 1532 1534 1535 1536 1537 1538 1538 1539 1540 1541 1541 1542 1543 1543 1544 1545 1545 1546 1547 1548 1549 1550 1551 1551 1551 1551 1551 1552 1552 1552
1506 1508 1510 1511 1513 1515 1518 1520 1523 1525 1527 1528 1530 1531 1532 1534 1534 1536 1537 1538 1539 1540 1540 1541 1542 1542 1543 1544 1545 1545 1546 1547 1548 1549 1549 1550 1550 1551 1551 1551 1551 1552 1552
1504 1506 1508 1509 1511 1513 1515 1518 1520 1523 1525 1527 1528 1530 1531 1532 1533 1535 1536 1537 1538 1539 1540 1541 1541 1542 1543 1544 1544 1545 1546 1546 1547 1548 1549 1549 1549 1550 1550 1550 1551 1551 1551
1501 1503 1505 1507 1509 1511 1513 1515 1518 1520 1523 1525 1526 1528 1530 1531 1532 1533 1535 1536 1537 1538 1539 1540 1541 1542 1542 1543 1543 1544 1545 1545 1546 1547 1548 1548 1549 1549 1549 1549 1550 1550 1550
1499 1500 1502 1504 1506 1508 1510 1513 1515 1518 1520 1522 1524 1526 1528 1529 1530 1532 1533 1534 1535 1537 1538 1539 1540 1541 1541 1542 1543 1543 1544 1545 1545 1546 1547 1547 1548 1548 1548 1548 1548 1549 1549
1496 1497 1499 1501 1503 1505 1508 1510 1513 1515 1518 1520 1522 1524 1525 1527 1529 1530 1531 1533 1534 1535 1536 1538 1539 1540 1540 1541 1542 1542 1543 1544 1544 1545 1546 1546 1547 1547 1547 1547 1547 1547 1548
1493 1494 1496 1498 1500 1502 1505 1507 1510 1512 1515 1517 1519 1521 1523 1525 1526 1528 1529 1531 1532 1534 1535 1536 1537 1538 1539 1540 1540 1541 1542 1543 1543 1544 1544 1545 1546 1546 1546 1546 1546 1546 1546
1489 1491 1493 1494 1496 1499 1501 1504 1506 1508 1511 1514 1516 1518 1520 1522 1524 1525 1527 1529 1530 1531 1533 1534 1535 1536 1537 1538 1539 1540 1541 1542 1542 1543 1543 1544 1544 1544 1544 1544 1544 1544 1544
1486 1487 1490 1492 1493 1496 1498 1501 1503 1506 1508 1511 1513 1515 1517 1519 1521 1523 1525 1526 1527 1529 1530 1531 1533 1534 1535 1536 1538 1539 1541 1543 1542 1542 1542 1542 1543 1543 1543 1543 1543 1543 1542
1482 1484 1486 1488 1490 1493 1495 1498 1500 1503 1505 1507 1509 1512 1514 1516 1518 1520 1522 1524 1525 1526 1527 1529 1530 1531 1532 1534 1536 1537 1539 1539 1540 1541 1541 1541 1541 1541 1541 1541 1541 1541 1541
1480 1482 1483 1485 1488 1490 1492 1494 1496 1498 1500 1503 1506 1508 1511 1513 1515 1517 1519 1520 1522 1523 1525 1526 1527 1529 1530 1531 1533 1534 1536 1536 1537 1538 1539 1539 1539 1539 1539 1539 1539 1539 1539
1477 1479 1480 1483 1484 1486 1489 1491 1493 1496 1498 1501 1503 1505 1507 1509 1512 1514 1515 1517 1518 1520 1522 1523 1525 1526 1527 1529 1530 1531 1532 1533 1534 1535 1536 1537 1537 1537 1537 1537 1537 1537 1537
1475 1476 1478 1479 1481 1483 1485 1487 1489 1492 1495 1497 1499 1501 1503 1506 1508 1510 1511 1513 1515 1517 1519 1520 1522 1523 1524 1526 1527 1528 1530 1531 1531 1532 1533 1533 1534 1534 1534 1534 1535 1535 1534